KAITUO 1B
1 40912U 15049P   18060.29444826  .00001178  00000-0  60282-4 0  9998
2 40912  97.4512  69.1607 0016597  31.8316  82.1149 15.18477417135295
TIANWANG 1C (TW-1C)
1 40926U 15051B   18060.32383192  .00007187  00000-0  14276-3 0  9995
2 40926  97.1984 103.2218 0009369 321.2762  99.9359 15.47240221136628
TIANWANG 1B (TW-1B)
1 40927U 15051C   18060.19193337  .00007023  00000-0  14534-3 0  9997
2 40927  97.2075 102.9814 0009345 334.1682  66.4553 15.46050371136525
TIANWANG 1A (TW-1A)
1 40928U 15051D   18059.84359947 +.00002965 +00000-0 +81184-4 0  9995
2 40928 097.1992 095.9409 0012398 002.2549 102.4020 15.38042339136123
LAPAN A2
1 40931U 15052B   18059.91903565  .00000676  00000-0  49304-5 0  9995
2 40931   5.9990 202.1047 0014338 277.2925  82.5994 14.76566087130977
LQSAT
1 40958U 15057A   18059.81951454 +.00000022 +00000-0 +11126-4 0  9993
2 40958 097.9496 135.2935 0017545 328.6543 031.3611 14.73017936128897
CHUBUSAT 2
1 41338U 16012B   18059.90961001 +.00000361 +00000-0 +21584-4 0  9992
2 41338 031.0030 281.5603 0013674 081.0914 279.1269 14.99926636111562
CHUBUSAT 3
1 41339U 16012C   18059.80394488  .00000314  00000-0  17789-4 0  9991
2 41339  31.0122 280.9876 0013376  87.4169 272.7999 15.00117800111535
OUFTI-1
1 41458U 16025C   18060.09512251  .00002741  00000-0  14616-3 0  9991
2 41458  98.1516 117.1193 0171637 149.8865 211.2374 15.04299966101185
E-STAR-2
1 41459U 16025D   18059.61794179 +.00001764 +00000-0 +95872-4 0  9997
2 41459 098.1531 116.4979 0173228 151.9114 209.1548 15.04059412101107
AAUSAT 4
1 41460U 16025E   18060.35974908  .00003274  00000-0  17314-3 0  9994
2 41460  98.1459 117.6214 0164009 146.2434 214.9363 15.05354593101267
NUSAT 1
1 41557U 16033B   18060.19166641  .00001362  00000-0  52455-4 0  9991
2 41557  97.4420 144.5961 0014117 172.9864 187.1575 15.28031546 97668
BEESAT 4
1 41619U 16040W   18060.24409089  .00001214  00000-0  56575-4 0  9993
2 41619  97.4286 124.8323 0010248 245.0231 114.9941 15.21780179 81676
PRATHAM
1 41783U 16059A   18060.13778341  .00000058  00000-0  20548-4 0  9999
2 41783  98.1320 123.3690 0034848  75.6994 284.8074 14.62903085 76160
ALSAT 1N
1 41789U 16059G   18060.39084972  .00000059  00000-0  20428-4 0  9991
2 41789  98.1323 124.6240 0029676  67.5951 292.8394 14.64130083 76245
NAYIF 1
1 42017U 17008BX  18059.71228038 +.00001497 +00000-0 +64620-4 0  9997
2 42017 097.4616 125.3671 0007629 051.6768 308.5154 15.24074459057549
LILACSAT-1
1 42725U 98067ME  18060.38916843  .00016651  00000-0  17551-3 0  9998
2 42725  51.6371 185.8559 0004393 190.4548 169.6356 15.64386209 43610
MAX VALIER SAT
1 42778U 17036P   18060.16955074  .00000920  00000-0  44425-4 0  9991
2 42778  97.4178 121.6121 0014423  89.3066 270.9822 15.21060631 38080
